Weather History for Birmingham, AL

Change the Weather History Date:

Monday, January 23, 2012

  Actual Average Record
Temperature  
Mean Temperature 68 °F 44 °F  
Max Temperature 71 °F 54 °F 78 °F (1943)
Min Temperature 65 °F 34 °F 4 °F (1963)
Degree Days  
Heating Degree Days 4 21  
Month to date heating degree days 492  
Since 1 July heating degree days 1539  
Growing Degree Days 12 (Base 50)    
Moisture  
Dew Point 53 °F    
Average Humidity 59    
Maximum Humidity 87    
Minimum Humidity 31    
Precipitation  
Precipitation 0.67 in 0.16 in 1.82 in (1999)
Month to date precipitation 3.56 3.52  
Year to date precipitation 3.56 3.52  
Snow  
Snow 0.00 in 0.00 in - ()
Month to date snowfall 0.0 0.4  
Since 1 July snowfall T 0.5  
Snow Depth 0.00 in    
Sea Level Pressure  
Sea Level Pressure 29.94 in    
Wind  
Wind Speed 13 mph (SW)    
Max Wind Speed 31 mph    
Max Gust Speed 43 mph    
Visibility 8 miles    
Events Rain , Thunderstorm    
T = Trace of Precipitation, MM = Missing Value Source: NWS Daily Summary

Daily Weather History Graph

Daily Weather History Graph

Search for Another Location

Airport:

Trip Planner

Search our weather history database for the weather conditions in past years. The results will help you decide how hot, cold, wet, or windy it might be!

Date:

Astronomy

Jan. 23, 2012 Rise Set
Actual Time 6:48 AM CST 5:09 PM CST
Civil Twilight 6:22 AM CST 5:35 PM CST
Nautical Twilight 5:51 AM CST 6:05 PM CST
Astronomical Twilight 5:22 AM CST 6:35 PM CST
Moon 6:47 AM CST (1/23) 5:51 PM CST (1/23)
Length of Visible Light 11h 13m
Length of Day
10h 20m
New Moon, 0% of the Moon is Illuminated
Jan 23
New Moon
Jan 30
First Quarter
Feb 7
Full
Feb 14
Last Quarter
Feb 21
New

Hourly Weather History & Observations

Time (CST) Temp. Dew Point Humidity Pressure Visibility Wind Dir Wind Speed Gust Speed Precip Events Conditions
12:29 AM 66.2 °F 62.6 °F 88% 29.92 in 10.0 mi SSE 15.0 mph 25.3 mph N/A   Overcast
12:53 AM 66.0 °F 62.1 °F 87% 29.90 in 7.0 mi South 19.6 mph 27.6 mph 0.00 in Rain Light Rain
1:53 AM 66.2 °F 62.6 °F 88% 29.90 in 10.0 mi South 20.7 mph 35.7 mph N/A   Overcast
2:53 AM 68.0 °F 63.0 °F 84% 29.86 in 10.0 mi South 19.6 mph 39.1 mph 0.03 in   Mostly Cloudy
3:13 AM 68.0 °F 62.6 °F 83% 29.88 in 10.0 mi South 20.7 mph 28.8 mph 0.00 in Rain , Thunderstorm Light Thunderstorms and Rain
3:53 AM 66.9 °F 64.0 °F 90% 29.78 in 7.0 mi SE 16.1 mph 29.9 mph 0.14 in Rain , Thunderstorm Light Thunderstorms and Rain
4:11 AM 66.2 °F 64.4 °F 94% 29.88 in 5.0 mi SSW 19.6 mph 38.0 mph N/A Rain , Thunderstorm Thunderstorms and Rain
4:29 AM 66.2 °F 64.4 °F 94% 29.89 in 4.0 mi SSW 17.3 mph 24.2 mph 0.07 in Rain Rain
4:39 AM 66.2 °F 64.4 °F 94% 29.89 in 1.8 mi SW 12.7 mph - 0.16 in Rain Heavy Rain
4:46 AM 66.2 °F 64.4 °F 94% 29.89 in 1.2 mi SW 12.7 mph 24.2 mph 0.25 in Rain Heavy Rain
4:53 AM 66.9 °F 64.0 °F 90% 29.87 in 1.2 mi SSW 15.0 mph 26.5 mph 0.41 in Rain Heavy Rain
4:56 AM 66.2 °F 64.4 °F 94% 29.89 in 2.0 mi South 16.1 mph 26.5 mph 0.01 in Rain Light Rain
5:04 AM 66.2 °F 64.4 °F 94% 29.89 in 10.0 mi SSW 9.2 mph 20.7 mph 0.01 in   Overcast
5:16 AM 66.2 °F 64.4 °F 94% 29.90 in 7.0 mi WSW 10.4 mph - N/A Rain Light Rain
5:20 AM 66.2 °F 64.4 °F 94% 29.89 in 2.5 mi SSW 8.1 mph - 0.05 in Rain Heavy Rain
5:33 AM 66.2 °F 64.4 °F 94% 29.90 in 7.0 mi SSW 11.5 mph 20.7 mph 0.08 in   Overcast
5:53 AM 66.9 °F 63.0 °F 87% 29.88 in 10.0 mi WSW 11.5 mph - 0.08 in   Overcast
6:53 AM 66.0 °F 62.1 °F 87% 29.90 in 10.0 mi SSW 9.2 mph - 0.00 in   Overcast
7:53 AM 66.0 °F 61.0 °F 84% 29.93 in 10.0 mi SW 10.4 mph - N/A   Mostly Cloudy
8:53 AM 66.0 °F 54.0 °F 65% 29.95 in 9.0 mi WSW 10.4 mph 18.4 mph N/A   Scattered Clouds
9:53 AM 66.9 °F 52.0 °F 59% 29.97 in 9.0 mi West 17.3 mph 25.3 mph N/A   Scattered Clouds
10:53 AM 68.0 °F 51.1 °F 55% 29.98 in 10.0 mi West 11.5 mph - N/A   Clear
11:53 AM 70.0 °F 50.0 °F 49% 29.96 in 10.0 mi West 12.7 mph - N/A   Clear
12:53 PM 70.0 °F 45.0 °F 41% 29.96 in 10.0 mi SW 11.5 mph - N/A   Clear
1:53 PM 70.0 °F 39.9 °F 33% 29.95 in 10.0 mi WSW 13.8 mph - N/A   Clear
2:53 PM 70.0 °F 37.9 °F 31% 29.95 in 10.0 mi West 12.7 mph - N/A   Clear
3:53 PM 68.0 °F 28.9 °F 23% 29.96 in 10.0 mi WSW 15.0 mph 19.6 mph N/A   Clear
4:53 PM 64.0 °F 34.0 °F 33% 29.98 in 10.0 mi West 6.9 mph - N/A   Clear
5:53 PM 62.1 °F 36.0 °F 38% 30.01 in 10.0 mi West 6.9 mph - N/A   Clear
6:53 PM 60.1 °F 37.0 °F 42% 30.04 in 10.0 mi West 3.5 mph - N/A   Clear
7:53 PM 57.9 °F 39.9 °F 51% 30.06 in 10.0 mi WNW 5.8 mph - N/A   Clear
8:53 PM 55.9 °F 39.9 °F 55% 30.07 in 10.0 mi NW 6.9 mph - N/A   Clear
9:53 PM 55.0 °F 37.9 °F 53% 30.09 in 10.0 mi WNW 5.8 mph - N/A   Clear
10:53 PM 53.1 °F 39.0 °F 59% 30.10 in 10.0 mi WNW 3.5 mph - N/A   Clear
11:53 PM 51.1 °F 39.0 °F 63% 30.11 in 10.0 mi WNW 6.9 mph - N/A   Clear